User: anonymous   Login
Location: Brede
(50.9167°N, 0.6000°E)
Time: 11:34:32
(UTC+00:00)
Language:

Cosmos 2151 Rocket - Orbit

View from above orbital plane
View from above orbital plane
View from above satellite
View from above satellite

Ground track
Ground track

The orbit data is extracted from the following two-line orbital elements,

1 21423U 91042B   20293.94827224 +.00000061 +00000-0 +50056-5 0  9990
2 21423 082.4921 260.5359 0016822 206.9857 153.0483 14.79801353562071
Epoch (UTC): 19 October 2020 22:45:30
Eccentricity: 0.0016822
inclination: 82.4921°
perigee height: 618 km
apogee height: 642 km
right ascension of ascending node: 260.5359°
argument of perigee: 206.9857°
revolutions per day: 14.79801353
mean anomaly at epoch: 153.0483°
orbit number at epoch: 56207

The dashed part of the orbit path shows where the satellite is in the earth's shadow,  

DLR